Date String (YYYY-MM-DD hh:mm:ss) UTC,Instrument flags,Ambient pressure (hPa),Sample flow (lpm),Bypass flow (lpm),Sample temperature (°C),Ambient temperature (°C),ASC tube jacket temperature (°C),LED temperature (°C),Box temperature (°C),Sample RH (%),Span deviation,Mass concentration (μg/m³),Mass concentration (μg/m³),Mass concentration (μg/m³)
DateTimeUTC,F1_M11,P_M11,Q1_M11,Q2_M11,T1_M11,T2_M11,T3_M11,T4_M11,T5_M11,U1_M11,ZSPAN_M11,X0_M11,X2_M11,X1_M11
2023-03-06 06:00:00,,0821.3,5.01,0.00,20.9,19.6,00.0,29.7,22.2,12.9,0000.0,0007.85,0003.19,0002.12
2023-03-06 06:01:00,,0821.3,5.00,0.00,20.8,19.0,00.0,29.7,22.0,12.9,0000.0,0007.72,0003.17,0002.08
2023-03-06 06:02:00,,0821.4,5.01,0.00,20.7,18.7,00.0,29.7,21.9,13.0,0000.0,0007.57,0003.12,0002.06
2023-03-06 06:03:00,,0821.3,5.02,0.00,20.7,19.6,00.0,29.6,22.1,13.0,0000.0,0007.58,0003.13,0002.03
2023-03-06 06:04:00,,0821.3,4.96,0.00,20.9,21.0,00.0,29.6,22.6,12.9,0000.0,0007.53,0003.09,0001.99
2023-03-06 06:05:00,,0821.3,5.00,0.00,21.0,22.0,00.0,29.6,22.9,12.8,0000.0,0007.76,0003.07,0001.98
2023-03-06 06:06:00,,0821.4,5.02,0.00,21.1,22.0,00.0,29.7,22.9,12.7,0000.0,0007.26,0003.01,0001.97
2023-03-06 06:07:00,,0821.4,5.00,0.00,21.1,21.0,00.0,29.8,22.6,12.7,0000.0,0006.18,0002.93,0001.96
2023-03-06 06:08:00,,0821.4,5.00,0.00,21.0,20.2,00.0,29.8,22.4,12.7,0000.0,0005.91,0002.88,0001.95
2023-03-06 06:09:00,,0821.4,4.99,0.00,20.9,19.5,00.0,29.8,22.2,12.8,0000.0,0005.48,0002.82,0001.93
2023-03-06 06:10:00,,0821.4,5.00,0.00,20.8,19.0,00.0,29.7,22.1,12.8,0000.0,0005.43,0002.81,0001.91
2023-03-06 06:11:00,,0821.4,5.01,0.00,20.8,19.0,00.0,29.7,22.0,12.9,0000.0,0005.37,0002.80,0001.90
2023-03-06 06:12:00,,0821.4,4.98,0.00,20.9,20.4,00.0,29.7,22.4,12.8,0000.0,0005.46,0002.78,0001.89
2023-03-06 06:13:00,,0821.4,4.98,0.00,21.0,21.6,00.0,29.7,22.8,12.7,0000.0,0006.78,0002.74,0001.87
2023-03-06 06:14:00,,0821.4,4.98,0.00,21.2,22.3,00.0,29.7,23.1,12.6,0000.0,0006.96,0002.70,0001.86
2023-03-06 06:15:00,,0821.4,4.99,0.00,21.2,21.6,00.0,29.8,22.9,12.6,0000.0,0007.65,0002.74,0001.85
2023-03-06 06:16:00,,0821.4,4.98,0.00,21.1,20.8,00.0,29.8,22.7,12.6,0000.0,0007.75,0002.75,0001.84
2023-03-06 06:17:00,,0821.4,5.00,0.00,21.1,20.0,00.0,29.8,22.5,12.6,0000.0,0008.01,0002.79,0001.83
2023-03-06 06:18:00,,0821.4,5.00,0.00,21.0,19.4,00.0,29.8,22.2,12.7,0000.0,0008.05,0002.81,0001.83
2023-03-06 06:19:00,,0821.4,5.00,0.00,20.8,18.9,00.0,29.8,22.0,12.8,0000.0,0008.07,0002.83,0001.83
2023-03-06 06:20:00,,0821.4,4.99,0.00,20.8,18.8,00.0,29.7,22.0,12.9,0000.0,0008.48,0002.84,0001.83
2023-03-06 06:21:00,,0821.4,5.01,0.00,20.9,20.3,00.0,29.7,22.4,12.8,0000.0,0008.63,0002.82,0001.84
2023-03-06 06:22:00,,0821.4,4.98,0.00,21.0,21.5,00.0,29.7,22.8,12.7,0000.0,0008.60,0002.78,0001.83
2023-03-06 06:23:00,,0821.4,4.97,0.00,21.2,22.2,00.0,29.7,23.1,12.6,0000.0,0008.50,0002.76,0001.83
2023-03-06 06:24:00,,0821.4,4.97,0.00,21.2,21.7,00.0,29.8,22.9,12.6,0000.0,0007.82,0002.81,0001.85
2023-03-06 06:25:00,,0821.4,4.99,0.00,21.1,20.7,00.0,29.8,22.6,12.6,0000.0,0007.72,0002.78,0001.85
2023-03-06 06:26:00,,0821.4,5.01,0.00,21.1,20.0,00.0,29.8,22.4,12.7,0000.0,0007.12,0002.73,0001.86
2023-03-06 06:27:00,,0821.4,4.99,0.00,20.9,19.5,00.0,29.8,22.2,12.8,0000.0,0006.53,0002.69,0001.87
2023-03-06 06:28:00,,0821.4,5.00,0.00,20.8,18.9,00.0,29.8,22.0,12.9,0000.0,0006.05,0002.68,0001.89
2023-03-06 06:29:00,,0821.5,5.02,0.00,20.8,19.6,00.0,29.7,22.2,12.9,0000.0,0007.44,0002.73,0001.89
2023-03-06 06:30:00,,0821.5,5.00,0.00,21.0,20.9,00.0,29.7,22.7,12.8,0000.0,0007.87,0002.71,0001.90
2023-03-06 06:31:00,,0821.5,5.04,0.00,21.1,21.9,00.0,29.7,23.0,12.8,0000.0,0007.90,0002.69,0001.90
2023-03-06 06:32:00,,0821.6,5.00,0.00,21.3,22.5,00.0,29.8,23.2,12.6,0000.0,0007.57,0002.69,0001.90
2023-03-06 06:33:00,,0821.6,5.02,0.00,21.3,21.9,00.0,29.9,23.1,12.5,0000.0,0008.18,0002.76,0001.90
2023-03-06 06:34:00,,0821.5,5.01,0.00,21.3,20.9,00.0,29.9,22.8,12.6,0000.0,0008.33,0002.79,0001.90
2023-03-06 06:35:00,,0821.5,5.00,0.00,21.2,20.1,00.0,29.9,22.5,12.7,0000.0,0008.49,0002.77,0001.88
2023-03-06 06:36:00,,0821.6,4.99,0.00,21.1,19.4,00.0,29.9,22.3,12.8,0000.0,0008.84,0002.75,0001.88
2023-03-06 06:37:00,,0821.6,5.01,0.00,21.0,18.9,00.0,29.9,22.1,12.8,0000.0,0009.40,0002.76,0001.88
2023-03-06 06:38:00,,0821.6,5.00,0.00,20.8,18.7,00.0,29.8,22.0,12.9,0000.0,0009.33,0002.78,0001.86
2023-03-06 06:39:00,,0821.6,5.01,0.00,20.9,20.0,00.0,29.8,22.4,12.9,0000.0,0009.31,0002.77,0001.85
2023-03-06 06:40:00,,0821.5,5.01,0.00,21.0,21.3,00.0,29.8,22.8,12.8,0000.0,0008.91,0002.76,0001.85
2023-03-06 06:41:00,,0821.6,4.99,0.00,21.2,22.1,00.0,29.8,23.1,12.7,0000.0,0008.18,0002.74,0001.84
2023-03-06 06:42:00,,0821.5,5.00,0.00,21.3,21.7,00.0,29.9,23.0,12.6,0000.0,0007.81,0002.72,0001.82
2023-03-06 06:43:00,,0821.5,5.03,0.00,21.2,20.7,00.0,29.9,22.7,12.6,0000.0,0007.78,0002.73,0001.82
2023-03-06 06:44:00,,0821.5,4.99,0.00,21.1,19.9,00.0,29.9,22.4,12.7,0000.0,0007.23,0002.70,0001.82
2023-03-06 06:45:00,,0821.5,5.00,0.00,21.0,19.2,00.0,29.9,22.2,12.7,0000.0,0006.86,0002.69,0001.82
2023-03-06 06:46:00,,0821.5,5.00,0.00,20.9,18.7,00.0,29.8,22.0,12.8,0000.0,0006.64,0002.71,0001.83
2023-03-06 06:47:00,,0821.5,5.01,0.00,20.8,19.1,00.0,29.8,22.0,12.9,0000.0,0006.25,0002.72,0001.84
2023-03-06 06:48:00,,0821.6,5.01,0.00,20.9,20.6,00.0,29.7,22.5,12.8,0000.0,0004.88,0002.71,0001.84
2023-03-06 06:49:00,,0821.6,4.99,0.00,21.1,21.8,00.0,29.7,22.9,12.7,0000.0,0004.76,0002.67,0001.84
2023-03-06 06:50:00,,0821.6,4.97,0.00,21.2,22.5,00.0,29.8,23.1,12.6,0000.0,0004.68,0002.64,0001.84
2023-03-06 06:51:00,,0821.5,4.99,0.00,21.3,22.0,00.0,29.9,23.0,12.5,0000.0,0004.43,0002.56,0001.82
2023-03-06 06:52:00,,0821.5,5.01,0.00,21.2,21.1,00.0,29.9,22.8,12.5,0000.0,0004.71,0002.58,0001.83
2023-03-06 06:53:00,,0821.5,5.01,0.00,21.2,20.2,00.0,29.9,22.5,12.5,0000.0,0004.74,0002.60,0001.83
2023-03-06 06:54:00,,0821.6,5.01,0.00,21.0,19.5,00.0,29.9,22.3,12.5,0000.0,0004.70,0002.59,0001.82
2023-03-06 06:55:00,,0821.6,5.00,0.00,20.9,19.0,00.0,29.9,22.0,12.6,0000.0,0004.79,0002.57,0001.81
2023-03-06 06:56:00,,0821.5,5.00,0.00,20.8,18.6,00.0,29.8,21.9,12.7,0000.0,0004.93,0002.53,0001.80
2023-03-06 06:57:00,,0821.6,5.01,0.00,20.7,18.8,00.0,29.8,22.0,12.7,0000.0,0005.15,0002.56,0001.79
2023-03-06 06:58:00,,0821.6,4.99,0.00,20.9,20.4,00.0,29.7,22.4,12.7,0000.0,0004.97,0002.53,0001.77
2023-03-06 06:59:00,,0821.7,5.02,0.00,21.0,21.6,00.0,29.7,22.8,12.5,0000.0,0004.99,0002.53,0001.77
